Edinburg, TX

10:22 PM CST on February 25, 2017 (GMT -0600)
Edinburg

Weather History for KEBG - February, 2013

Change the Weather History Date:

Monday, February 18, 2013

  Actual Average (KMFE) Record (KMFE)
Temperature  
Mean Temperature 78 °F -  
Max Temperature 88 °F 75 °F 98 °F (1986)
Min Temperature 66 °F 54 °F 37 °F (1979)
Cooling Degree Days 12    
Growing Degree Days 28 (Base 50)    
Moisture  
Dew Point 61 °F    
Average Humidity 63    
Maximum Humidity 81    
Minimum Humidity 34    
Precipitation  
Precipitation 0.08 in - - ()
Sea Level Pressure  
Sea Level Pressure 29.92 in    
Wind  
Wind Speed 15 mph (SSE)    
Max Wind Speed 28 mph    
Max Gust Speed 33 mph    
Visibility 6 miles    
Events      
Averages and records for this station are not official NWS values.
T = Trace of Precipitation, MM = Missing Value Source: NWS Daily Summary

Daily Weather History Graph

Daily Weather History Graph

Search for Another Location

Airport or City:

Trip Planner

Search our weather history database for the weather conditions in past years. The results will help you decide how hot, cold, wet, or windy it might be!

Date:

Astronomy

Feb. 18, 2013 Rise Set
Actual Time 7:05 AM CST 6:27 PM CST
Civil Twilight 6:42 AM CST 6:50 PM CST
Nautical Twilight 6:15 AM CST 7:18 PM CST
Astronomical Twilight 5:48 AM CST 7:44 PM CST
Moon 12:30 PM CST (2/18) 1:31 AM CST (2/18)
Length of Visible Light 12h 08m
Length of Day
11h 21m
First Quarter, 58% of the Moon is Illuminated
Feb 18
First Quarter
Feb 25
Full
Mar 4
Last Quarter
Mar 11
New
Mar 19
First Quarter

Hourly Weather History & Observations

Time (CST) Temp. Heat Index Dew Point Humidity Pressure Visibility Wind Dir Wind Speed Gust Speed Precip Events Conditions
12:15 AM 69.3 °F - 57.7 °F 67% 30.00 in 7.0 mi South 19.6 mph 28.8 mph N/A   Overcast
12:35 AM 69.1 °F - 58.5 °F 69% 29.99 in 7.0 mi SSE 19.6 mph 24.2 mph N/A   Overcast
12:55 AM 68.9 °F - 59.0 °F 71% 29.99 in 7.0 mi SSE 15.0 mph - N/A   Overcast
1:15 AM 68.9 °F - 59.2 °F 71% 29.98 in 7.0 mi SSE 15.0 mph 18.4 mph N/A   Overcast
1:35 AM 68.9 °F - 59.4 °F 72% 29.98 in 7.0 mi SSE 13.8 mph 18.4 mph N/A   Overcast
1:55 AM 68.9 °F - 59.5 °F 72% 29.97 in 7.0 mi SSE 16.1 mph 21.9 mph N/A   Overcast
2:15 AM 68.9 °F - 59.9 °F 73% 29.97 in 7.0 mi SSE 10.4 mph 18.4 mph N/A   Overcast
2:35 AM 68.9 °F - 59.9 °F 73% 29.96 in 7.0 mi SSE 11.5 mph - N/A   Overcast
2:55 AM 68.9 °F - 60.1 °F 73% 29.95 in 7.0 mi SSE 10.4 mph - N/A   Overcast
3:15 AM 68.5 °F - 60.4 °F 75% 29.94 in 7.0 mi SSE 8.1 mph - N/A   Overcast
3:35 AM 68.9 °F - 60.6 °F 75% 29.94 in 7.0 mi SSE 11.5 mph 17.3 mph N/A   Overcast
3:55 AM 69.1 °F - 60.6 °F 74% 29.93 in 5.0 mi SSE 13.8 mph 17.3 mph N/A   Haze
4:15 AM 69.1 °F - 60.8 °F 75% 29.93 in 7.0 mi SSE 15.0 mph 19.6 mph N/A   Overcast
4:35 AM 68.5 °F - 61.5 °F 78% 29.92 in 5.0 mi SSE 13.8 mph 20.7 mph N/A   Haze
4:55 AM 68.9 °F - 61.5 °F 77% 29.91 in 7.0 mi SSE 10.4 mph 16.1 mph N/A   Overcast
5:15 AM 69.1 °F - 61.7 °F 77% 29.91 in 7.0 mi SSE 11.5 mph - N/A   Overcast
5:35 AM 69.3 °F - 61.9 °F 77% 29.91 in 7.0 mi SSE 13.8 mph 20.7 mph N/A   Overcast
5:55 AM 69.1 °F - 62.1 °F 78% 29.91 in 7.0 mi SSE 12.7 mph 18.4 mph N/A   Overcast
6:15 AM 69.3 °F - 62.2 °F 78% 29.90 in 7.0 mi SSE 13.8 mph - N/A   Overcast
6:35 AM 69.1 °F - 62.4 °F 79% 29.90 in 7.0 mi South 13.8 mph - N/A   Overcast
6:55 AM 69.3 °F - 62.6 °F 79% 29.91 in 7.0 mi SSE 13.8 mph 18.4 mph N/A   Overcast
7:15 AM 69.3 °F - 62.6 °F 79% 29.91 in 5.0 mi South 15.0 mph 19.6 mph N/A   Haze
7:35 AM 69.3 °F - 62.6 °F 79% 29.91 in 5.0 mi SSE 13.8 mph 21.9 mph N/A   Haze
7:55 AM 69.8 °F - 62.8 °F 78% 29.91 in 7.0 mi SSE 16.1 mph 20.7 mph N/A   Scattered Clouds
8:15 AM 70.7 °F - 62.8 °F 76% 29.91 in 4.0 mi SSE 16.1 mph 21.9 mph 0.08 in   Haze
8:35 AM 72.0 °F - 63.0 °F 73% 29.92 in 7.0 mi South 13.8 mph 18.4 mph 0.08 in   Scattered Clouds
8:55 AM 72.7 °F - 63.0 °F 71% 29.94 in 7.0 mi South 19.6 mph 25.3 mph 0.08 in   Mostly Cloudy
9:15 AM 73.2 °F - 63.0 °F 70% 29.94 in 5.0 mi South 18.4 mph 24.2 mph N/A   Haze
9:35 AM 74.3 °F - 62.8 °F 67% 29.94 in 4.0 mi South 20.7 mph 26.5 mph N/A   Haze
9:55 AM 75.7 °F - 62.8 °F 64% 29.94 in 7.0 mi South 23.0 mph 28.8 mph N/A   Overcast
10:15 AM 76.5 °F - 62.6 °F 62% 29.94 in 7.0 mi South 19.6 mph 27.6 mph N/A   Overcast
10:35 AM 77.2 °F - 62.1 °F 59% 29.94 in 7.0 mi South 23.0 mph 33.4 mph N/A   Overcast
10:55 AM 78.3 °F - 61.7 °F 57% 29.94 in 7.0 mi South 19.6 mph 27.6 mph N/A   Overcast
11:15 AM 79.0 °F - 61.3 °F 55% 29.94 in 5.0 mi South 25.3 mph 31.1 mph N/A   Haze
11:35 AM 80.4 °F 81.3 °F 60.8 °F 51% 29.92 in 5.0 mi South 27.6 mph 32.2 mph N/A   Haze
11:55 AM 82.8 °F 83.1 °F 60.6 °F 47% 29.91 in 7.0 mi South 24.2 mph 29.9 mph N/A   Mostly Cloudy
12:15 PM 83.3 °F 83.5 °F 60.6 °F 46% 29.90 in 7.0 mi South 20.7 mph 29.9 mph N/A   Scattered Clouds
12:35 PM 83.5 °F 83.6 °F 60.3 °F 45% 29.90 in 5.0 mi South 17.3 mph 31.1 mph N/A   Haze
12:55 PM 83.7 °F 83.8 °F 60.4 °F 45% 29.89 in 5.0 mi South 21.9 mph 26.5 mph N/A   Haze
1:15 PM 85.5 °F 85.2 °F 59.9 °F 42% 29.88 in 5.0 mi South 18.4 mph 24.2 mph N/A   Haze
1:35 PM 86.2 °F 85.6 °F 59.4 °F 40% 29.88 in 7.0 mi South 16.1 mph 21.9 mph N/A   Clear
1:55 PM 87.1 °F 86.3 °F 58.8 °F 38% 29.86 in 7.0 mi SSE 17.3 mph 24.2 mph N/A   Clear
2:15 PM 87.4 °F 86.5 °F 58.1 °F 37% 29.86 in 7.0 mi SSW 16.1 mph 19.6 mph N/A   Clear
2:35 PM 88.3 °F 87.1 °F 57.2 °F 35% 29.85 in 7.0 mi South 11.5 mph 18.4 mph N/A   Clear
2:55 PM 88.7 °F 87.3 °F 56.8 °F 34% 29.84 in 4.0 mi South 9.2 mph - N/A   Haze
3:15 PM 88.3 °F 86.9 °F 56.3 °F 34% 29.84 in 7.0 mi South 11.5 mph - N/A   Scattered Clouds
3:35 PM 88.0 °F 86.5 °F 56.1 °F 34% 29.83 in 7.0 mi South 11.5 mph 20.7 mph N/A   Scattered Clouds
3:55 PM 87.8 °F 87.6 °F 60.4 °F 40% 29.82 in 5.0 mi SSE 18.4 mph 21.9 mph N/A   Haze
4:15 PM 85.6 °F 85.4 °F 60.3 °F 42% 29.83 in 5.0 mi SSE 17.3 mph - N/A   Haze
4:35 PM 85.3 °F 85.2 °F 60.4 °F 43% 29.83 in 7.0 mi SSE 17.3 mph 23.0 mph N/A   Clear
4:55 PM 84.2 °F 84.4 °F 60.4 °F 45% 29.84 in 5.0 mi SE 17.3 mph 27.6 mph N/A   Haze
5:15 PM 83.3 °F 83.5 °F 60.3 °F 46% 29.84 in 7.0 mi SE 16.1 mph 20.7 mph N/A   Clear
5:35 PM 82.4 °F 82.7 °F 60.1 °F 47% 29.85 in 5.0 mi SE 15.0 mph - N/A   Haze
6:15 PM 79.7 °F - 60.1 °F 51% 29.87 in 7.0 mi SE 15.0 mph - N/A   Clear
6:35 PM 77.9 °F - 60.8 °F 56% 29.88 in 5.0 mi SE 16.1 mph - N/A   Haze
6:55 PM 76.6 °F - 60.8 °F 58% 29.89 in 5.0 mi SE 15.0 mph 18.4 mph N/A   Haze
7:15 PM 75.9 °F - 61.0 °F 60% 29.90 in 7.0 mi SSE 11.5 mph - N/A   Clear
7:35 PM 75.0 °F - 61.7 °F 63% 29.92 in 7.0 mi SSE 16.1 mph - N/A   Clear
7:55 PM 74.3 °F - 61.7 °F 65% 29.93 in 7.0 mi SSE 11.5 mph - N/A   Clear
8:15 PM 73.8 °F - 61.3 °F 65% 29.94 in 7.0 mi SSE 12.7 mph 18.4 mph N/A   Clear
8:35 PM 73.2 °F - 61.5 °F 67% 29.96 in 7.0 mi SSE 8.1 mph - N/A   Clear
8:55 PM 72.5 °F - 61.7 °F 69% 29.96 in 7.0 mi SSE 8.1 mph - N/A   Clear
9:15 PM 72.5 °F - 61.9 °F 69% 29.97 in 7.0 mi SSE 9.2 mph - N/A   Clear
9:35 PM 71.8 °F - 62.1 °F 71% 29.97 in 7.0 mi South 9.2 mph - N/A   Clear
9:55 PM 71.2 °F - 62.1 °F 73% 29.99 in 7.0 mi SSE 5.8 mph - N/A   Clear
10:15 PM 70.7 °F - 62.4 °F 75% 29.99 in 7.0 mi SSE 5.8 mph - N/A   Clear
10:35 PM 70.0 °F - 62.2 °F 76% 29.99 in 7.0 mi SSE 5.8 mph - N/A   Clear
10:55 PM 68.9 °F - 62.1 °F 79% 29.99 in 7.0 mi SSE 4.6 mph - N/A   Clear
11:15 PM 68.4 °F - 61.7 °F 79% 29.99 in 7.0 mi SE 3.5 mph - N/A   Clear
11:35 PM 67.5 °F - 61.5 °F 81% 30.00 in 7.0 mi SE 3.5 mph - N/A   Clear
11:55 PM 66.7 °F - 60.8 °F 81% 30.00 in 5.0 mi ESE 3.5 mph - N/A   Haze